Date String (YYYY-MM-DD hh:mm:ss) UTC,Instrument flags,Ambient pressure (hPa),Sample flow (lpm),Bypass flow (lpm),Sample temperature (°C),Ambient temperature (°C),ASC tube jacket temperature (°C),LED temperature (°C),Box temperature (°C),Sample RH (%),Span deviation,Mass concentration (μg/m³),Mass concentration (μg/m³),Mass concentration (μg/m³)
DateTimeUTC,F1_M11,P_M11,Q1_M11,Q2_M11,T1_M11,T2_M11,T3_M11,T4_M11,T5_M11,U1_M11,ZSPAN_M11,X2_M11,X0_M11,X1_M11
2021-09-19 02:00:00,,0825.3,5.01,0.00,29.5,28.7,00.0,38.3,31.3,14.1,0000.0,0004.93,0010.40,0004.31
2021-09-19 02:01:00,,0825.3,5.00,0.00,29.4,27.4,00.0,38.3,31.1,14.2,0000.0,0004.90,0010.31,0004.29
2021-09-19 02:02:00,,0825.3,5.00,0.00,29.3,25.8,00.0,38.3,30.6,14.3,0000.0,0004.85,0009.70,0004.28
2021-09-19 02:03:00,,0825.4,5.00,0.00,29.2,25.7,00.0,38.3,30.5,14.5,0000.0,0004.87,0009.74,0004.28
2021-09-19 02:04:00,,0825.4,4.99,0.00,29.1,26.1,00.0,38.3,30.6,14.5,0000.0,0004.84,0009.49,0004.27
2021-09-19 02:05:00,,0825.3,5.00,0.00,29.1,26.6,00.0,38.2,30.7,14.6,0000.0,0004.82,0009.49,0004.26
2021-09-19 02:06:00,,0825.3,5.00,0.00,29.1,27.0,00.0,38.2,30.8,14.5,0000.0,0004.78,0009.32,0004.25
2021-09-19 02:07:00,,0825.4,5.01,0.00,29.1,27.4,00.0,38.2,30.9,14.5,0000.0,0004.80,0008.85,0004.24
2021-09-19 02:08:00,,0825.4,5.00,0.00,29.2,27.7,00.0,38.2,31.0,14.5,0000.0,0004.84,0009.67,0004.24
2021-09-19 02:09:00,,0825.4,5.00,0.00,29.2,27.9,00.0,38.2,31.0,14.5,0000.0,0004.84,0009.86,0004.24
2021-09-19 02:10:00,,0825.4,4.99,0.00,29.2,28.2,00.0,38.2,31.1,14.4,0001.1,0004.87,0010.04,0004.25
2021-09-19 02:11:00,,0825.4,5.02,0.00,29.3,28.3,00.0,38.2,31.2,14.4,0001.8,0004.90,0010.46,0004.24
2021-09-19 02:12:00,,0825.4,5.00,0.00,29.4,28.5,00.0,38.3,31.2,14.5,0001.7,0004.93,0011.01,0004.24
2021-09-19 02:13:00,,0825.4,5.00,0.00,29.4,28.6,00.0,38.3,31.3,14.5,0001.7,0004.94,0010.94,0004.24
2021-09-19 02:14:00,,0825.4,5.01,0.00,29.5,28.6,00.0,38.3,31.3,14.5,0001.4,0004.92,0010.58,0004.25
2021-09-19 02:15:00,,0825.4,5.00,0.00,29.4,27.1,00.0,38.3,30.9,14.6,0001.6,0004.93,0010.45,0004.26
2021-09-19 02:16:00,,0825.4,4.99,0.00,29.2,25.5,00.0,38.3,30.5,14.7,0002.0,0004.96,0010.48,0004.26
2021-09-19 02:17:00,,0825.4,5.00,0.00,29.1,25.6,00.0,38.3,30.5,14.8,0002.2,0004.97,0010.90,0004.25
2021-09-19 02:18:00,,0825.4,5.01,0.00,29.1,26.0,00.0,38.2,30.6,14.9,0001.9,0004.96,0011.25,0004.26
2021-09-19 02:19:00,,0825.4,5.00,0.00,29.0,26.5,00.0,38.2,30.7,14.9,0002.0,0004.95,0010.84,0004.25
2021-09-19 02:20:00,,0825.4,5.00,0.00,29.1,27.0,00.0,38.2,30.8,14.9,0001.8,0004.96,0010.66,0004.25
2021-09-19 02:21:00,,0825.4,4.99,0.00,29.1,27.3,00.0,38.2,30.8,14.9,0001.8,0004.94,0010.77,0004.25
2021-09-19 02:22:00,,0825.3,5.00,0.00,29.1,27.6,00.0,38.2,30.9,14.9,0001.7,0004.89,0010.75,0004.25
2021-09-19 02:23:00,,0825.3,5.00,0.00,29.2,27.9,00.0,38.2,31.0,14.9,0001.6,0004.85,0010.14,0004.24
2021-09-19 02:24:00,,0825.3,5.01,0.00,29.2,28.1,00.0,38.2,31.1,14.9,0001.9,0004.80,0009.92,0004.23
2021-09-19 02:25:00,,0825.3,4.99,0.00,29.3,28.3,00.0,38.2,31.1,14.9,0002.1,0004.80,0010.01,0004.23
2021-09-19 02:26:00,,0825.3,5.00,0.00,29.3,28.4,00.0,38.2,31.2,14.9,0001.7,0004.76,0009.92,0004.20
2021-09-19 02:27:00,,0825.3,4.99,0.00,29.4,28.5,00.0,38.3,31.2,14.9,0002.2,0004.73,0009.91,0004.20
2021-09-19 02:28:00,,0825.3,5.01,0.00,29.4,28.6,00.0,38.3,31.3,14.9,0002.1,0004.77,0009.63,0004.20
2021-09-19 02:29:00,,0825.4,5.00,0.00,29.5,28.7,00.0,38.3,31.3,14.8,0002.5,0004.77,0009.17,0004.20
2021-09-19 02:30:00,,0825.4,5.01,0.00,29.5,28.1,00.0,38.4,31.2,14.9,0002.4,0004.76,0008.81,0004.19
2021-09-19 02:31:00,,0825.4,5.00,0.00,29.3,26.1,00.0,38.3,30.7,15.0,0002.7,0004.73,0008.74,0004.17
2021-09-19 02:32:00,,0825.4,4.99,0.00,29.2,25.5,00.0,38.3,30.4,15.1,0003.0,0004.72,0008.68,0004.17
2021-09-19 02:33:00,,0825.4,5.00,0.00,29.1,25.9,00.0,38.3,30.5,15.3,0002.7,0004.72,0008.19,0004.17
2021-09-19 02:34:00,,0825.4,4.99,0.00,29.1,26.3,00.0,38.3,30.6,15.3,0002.2,0004.74,0008.23,0004.16
2021-09-19 02:35:00,,0825.3,5.00,0.00,29.1,26.8,00.0,38.2,30.7,15.4,0001.3,0004.76,0008.32,0004.15
2021-09-19 02:36:00,,0825.3,5.01,0.00,29.1,27.2,00.0,38.2,30.8,15.4,0001.9,0004.80,0008.35,0004.15
2021-09-19 02:37:00,,0825.3,4.98,0.00,29.1,27.5,00.0,38.2,30.9,15.4,0000.9,0004.81,0008.41,0004.14
2021-09-19 02:38:00,,0825.3,5.00,0.00,29.2,27.8,00.0,38.2,31.0,15.3,0001.0,0004.82,0008.34,0004.14
2021-09-19 02:39:00,,0825.3,5.00,0.00,29.2,28.0,00.0,38.2,31.0,15.3,0000.0,0004.79,0008.21,0004.14
2021-09-19 02:40:00,,0825.3,4.99,0.00,29.3,28.2,00.0,38.2,31.1,15.3,0000.5,0004.78,0008.15,0004.14
2021-09-19 02:41:00,,0825.3,5.01,0.00,29.3,28.3,00.0,38.3,31.2,15.3,0000.6,0004.81,0008.59,0004.13
2021-09-19 02:42:00,,0825.4,4.99,0.00,29.4,28.5,00.0,38.3,31.2,15.2,0000.0,0004.85,0008.78,0004.14
2021-09-19 02:43:00,,0825.3,5.01,0.00,29.4,28.6,00.0,38.3,31.3,15.2,-000.2,0004.86,0009.55,0004.13
2021-09-19 02:44:00,,0825.3,4.99,0.00,29.5,28.7,00.0,38.3,31.3,15.2,-000.1,0004.90,0010.18,0004.12
2021-09-19 02:45:00,,0825.3,5.00,0.00,29.5,28.6,00.0,38.4,31.3,15.1,0000.3,0004.86,0010.44,0004.12
2021-09-19 02:46:00,,0825.2,4.99,0.00,29.4,26.9,00.0,38.4,30.9,15.2,0000.6,0004.84,0010.38,0004.13
2021-09-19 02:47:00,,0825.2,4.99,0.00,29.3,25.4,00.0,38.3,30.6,15.3,0001.0,0004.77,0010.17,0004.11
2021-09-19 02:48:00,,0825.2,5.02,0.00,29.2,25.6,00.0,38.3,30.5,15.4,0001.4,0004.73,0010.09,0004.10
2021-09-19 02:49:00,,0825.2,4.99,0.00,29.1,26.1,00.0,38.3,30.6,15.5,0000.0,0004.71,0010.01,0004.09
2021-09-19 02:50:00,,0825.2,5.00,0.00,29.1,26.6,00.0,38.2,30.7,15.5,0000.0,0004.70,0010.03,0004.07
2021-09-19 02:51:00,,0825.2,5.00,0.00,29.1,27.0,00.0,38.2,30.8,15.5,0000.0,0004.70,0010.39,0004.05
2021-09-19 02:52:00,,0825.3,5.00,0.00,29.1,27.4,00.0,38.2,30.9,15.4,0000.0,0004.65,0010.11,0004.04
2021-09-19 02:53:00,,0825.3,5.01,0.00,29.1,27.7,00.0,38.2,30.9,15.5,0000.0,0004.61,0010.03,0004.03
2021-09-19 02:54:00,,0825.3,4.99,0.00,29.2,27.9,00.0,38.2,31.0,15.4,0000.0,0004.60,0009.19,0004.02
2021-09-19 02:55:00,,0825.3,5.00,0.00,29.2,28.1,00.0,38.2,31.1,15.4,0000.0,0004.56,0009.36,0004.00
2021-09-19 02:56:00,,0825.3,5.00,0.00,29.3,28.3,00.0,38.2,31.1,15.3,0000.0,0004.57,0009.26,0004.00
2021-09-19 02:57:00,,0825.4,5.00,0.00,29.3,28.4,00.0,38.3,31.2,15.3,0000.0,0004.57,0009.41,0003.99
2021-09-19 02:58:00,,0825.4,4.99,0.00,29.4,28.5,00.0,38.3,31.2,15.3,0000.0,0004.59,0009.65,0003.98
2021-09-19 02:59:00,,0825.3,5.00,0.00,29.4,28.6,00.0,38.3,31.3,15.3,0000.0,0004.61,0009.80,0003.98
